Flag for Peru Weather past 2 weeks in Arequipa, Arequipa, Peru

Now
54 °F

Clear.


Feels Like: 50 °F
Forecast: 53 / 74 °F
Wind: 10 mph from Northeast

Location: Arequipa Airport


UV Index: 7 (High)

Visibility: 10 mi


Pressure: 30.33 "Hg

Humidity: 11%

Dew point: 0 °F

Location of ArequipaLocation

Historic Weather in Arequipa

°F

Arequipa temperature yesterday

Maximum temperature yesterday: 72 °F (at 11:00 AM)
Minimum temperature yesterday: 48 °F (at 4:00 AM)
Average temperature yesterday: 61 °F

Past Weeks' High & Low Weather Summary

 TemperatureHumidityPressure
High72 °F (Apr 15, 11:00 AM)82% (Apr 10, 6:00 PM)31.10 "Hg (Apr 10, 6:00 PM)
Low48 °F (Apr 13, 4:00 AM)11% (Apr 24, 7:00 AM)29.89 "Hg (Apr 21, 3:00 AM)
Average59 °F48%30.28 "Hg
* Reported Midnight between Apr 9 and Apr 10 — Midnight between Apr 24 and Apr 25, Arequipa, Weather by CustomWeather, © 2014

Note: Actual official high and low records may vary slightly from our data, if they occured in-between our weather recording intervals... More about our weather records

Advertising

Historic Weather Conditions — Data for Previous 24 hours

 ConditionsComfort  
Time TempWeatherWind HumidityBarometerVisibility
12:00 AM
Apr 25
54 °FClear.7 mph13%30.33 "Hg10 mi
11:00 PM
Apr 24
54 °FClear.7 mph14%30.36 "Hg10 mi
10:00 PM61 °FClear.8 mph11%30.36 "Hg10 mi
9:00 PM61 °FClear.6 mph11%30.36 "Hg10 mi
8:00 PM55 °FClear.3 mph19%30.33 "Hg10 mi
7:00 PM57 °FClear.2 mph63%30.33 "Hg10 mi
6:00 PM61 °FClear.8 mph55%30.30 "Hg10 mi
5:00 PM66 °FSunny.8 mph40%30.27 "Hg10 mi
4:00 PM70 °FPassing clouds.9 mph29%30.27 "HgN/A
3:00 PM72 °FPassing clouds.9 mph25%30.27 "HgN/A
2:00 PM70 °FSunny.12 mph27%30.30 "Hg10 mi
1:00 PM72 °FPassing clouds.10 mph23%30.30 "HgN/A
12:00 PM72 °FPassing clouds.10 mph15%30.33 "HgN/A
11:00 AM72 °FPassing clouds.8 mph12%30.33 "HgN/A
10:00 AM70 °FPassing clouds.7 mph12%30.36 "HgN/A
9:00 AM70 °FPassing clouds.6 mph11%30.33 "HgN/A
8:00 AM64 °FPassing clouds.5 mph13%30.33 "HgN/A
7:00 AM59 °FSunny.7 mph11%30.30 "Hg10 mi
6:00 AM50 °FSunny.6 mph22%30.30 "Hg10 mi
5:00 AM52 °FClear.5 mph35%30.30 "Hg10 mi
4:00 AM48 °FClear.No wind20%30.27 "Hg10 mi
3:00 AM52 °FClear.7 mph22%30.27 "Hg10 mi
2:00 AM52 °FClear.3 mph30%30.30 "Hg10 mi
1:00 AM54 °FClear.No wind41%30.30 "Hg10 mi
Weather by CustomWeather, © 2014

See weather overview